Okean-O

operational
NORAD ID: 25860 Int'l Des: 1999-039 Owner: RGMS/YUZHUA Country: RU
LEOCIRCULARRETROGRADESSO

About Okean-O

Description loading...

Live Position

Loading 3D Globe...

Upcoming Passes

Altitude History

Altitude vs Time

uPlot chart will show altitude changes over time

Two-Line Element Set

1 25860U 99039A 26061.62223197 .00000828 00000-0 11541-3 0 9991
2 25860 97.9458 121.5851 0001479 71.8136 288.3236 14.80322080433342
Epoch: Mar 2, 2026 • Age: 26 hours

Current Status

Altitude 649.2 km
Velocity 7.53 km/s
Sub-Earth Point -51.35°S, 105.51°E
Launch Date Jul 17, 1999
Age 26.6 years
Type other

Technical Details

Classification Payload
Mass 6300.00 kg
Dry Mass 6000.00 kg
Total Mass 6300.00 kg
Length 10.60 m
Diameter 1.80 m
Span 10.60 m
Shape Cyl + 2 Pan
Manufacturer YUZHUA
Bus Type Okean-O
Phase Status Unknown Transfer Status
Owner/State RGMS/YUZHUA/RU

Large Constellations

Loading constellations...